Adrian, MI

6:52 PM EDT on April 28, 2017 (GMT -0400)
Lenawee County

Weather History for KADG - January, 2012

Change the Weather History Date:

Saturday, January 14, 2012

  Actual Average Record
Temperature  
Mean Temperature 19 °F -  
Max Temperature 21 °F 31 °F 56 °F (1950)
Min Temperature 17 °F 14 °F -8 °F (2009)
Degree Days  
Heating Degree Days 46    
Moisture  
Dew Point 15 °F    
Average Humidity 83    
Maximum Humidity 93    
Minimum Humidity 72    
Precipitation  
Precipitation 0.00 in - - ()
Sea Level Pressure  
Sea Level Pressure 30.12 in    
Wind  
Wind Speed 8 mph (West)    
Max Wind Speed 14 mph    
Max Gust Speed 20 mph    
Visibility 7 miles    
Events Snow    
Averages and records for this station are not official NWS values.
T = Trace of Precipitation, MM = Missing Value Source: NWS Daily Summary

Daily Weather History Graph

Daily Weather History Graph

Search for Another Location

Airport or City:

Trip Planner

Search our weather history database for the weather conditions in past years. The results will help you decide how hot, cold, wet, or windy it might be!

Date:

Astronomy

Jan. 14, 2012 Rise Set
Actual Time 8:02 AM EST 5:28 PM EST
Civil Twilight 7:31 AM EST 5:59 PM EST
Nautical Twilight 6:56 AM EST 6:34 PM EST
Astronomical Twilight 6:23 AM EST 7:07 PM EST
Moon 11:55 PM EST (1/14) 10:40 AM EST (1/14)
Length of Visible Light 10h 28m
Length of Day
9h 26m
Waning Gibbous, 69% of the Moon is Illuminated
Jan 14
Waning Gibbous
Jan 16
Last Quarter
Jan 23
New
Jan 30
First Quarter
Feb 7
Full

Hourly Weather History & Observations

Time (EST) Temp. Windchill Dew Point Humidity Pressure Visibility Wind Dir Wind Speed Gust Speed Precip Events Conditions
12:26 AM 19.4 °F 6.0 °F 15.8 °F 86% 29.96 in 10.0 mi West 13.8 mph 19.6 mph 0.00 in   Overcast
12:53 AM 19.9 °F 7.9 °F 16.0 °F 85% 30.01 in 9.0 mi West 11.5 mph - 0.00 in   Overcast
1:53 AM 19.9 °F 7.3 °F 15.1 °F 81% 30.02 in 10.0 mi WNW 12.7 mph - N/A   Overcast
2:34 AM 19.4 °F 9.5 °F 15.8 °F 86% 29.99 in 10.0 mi West 8.1 mph - N/A   Overcast
2:53 AM 19.0 °F 10.0 °F 15.1 °F 85% 30.04 in 8.0 mi West 6.9 mph - N/A   Overcast
3:53 AM 19.0 °F 11.1 °F 15.1 °F 85% 30.04 in 8.0 mi West 5.8 mph - 0.00 in   Overcast
4:53 AM 19.0 °F - 16.0 °F 88% 30.05 in 7.0 mi Calm Calm - 0.00 in   Overcast
5:39 AM 19.4 °F 11.5 °F 15.8 °F 86% 30.01 in 8.0 mi WSW 5.8 mph - N/A   Overcast
5:53 AM 19.0 °F 11.1 °F 15.1 °F 85% 30.06 in 8.0 mi WSW 5.8 mph - N/A   Overcast
6:53 AM 19.0 °F 10.0 °F 15.1 °F 85% 30.08 in 7.0 mi West 6.9 mph - 0.00 in   Overcast
7:53 AM 19.0 °F 8.2 °F 14.0 °F 81% 30.09 in 5.0 mi West 9.2 mph - 0.00 in Snow Light Snow
8:23 AM 19.4 °F 12.8 °F 15.8 °F 86% 30.05 in 2.5 mi WSW 4.6 mph - 0.00 in Snow Light Snow
8:35 AM 17.6 °F 9.3 °F 15.8 °F 93% 30.05 in 3.0 mi WSW 5.8 mph - 0.00 in Snow Light Snow
8:53 AM 18.0 °F 7.7 °F 15.1 °F 88% 30.11 in 4.0 mi WSW 8.1 mph - 0.00 in Snow Light Snow
9:53 AM 19.0 °F 9.0 °F 15.1 °F 85% 30.13 in 6.0 mi West 8.1 mph - 0.00 in   Overcast
10:21 AM 19.4 °F 10.4 °F 14.0 °F 80% 30.09 in 5.0 mi West 6.9 mph - 0.00 in Snow Light Snow
10:53 AM 19.0 °F 8.2 °F 14.0 °F 81% 30.14 in 6.0 mi WSW 9.2 mph - 0.00 in   Haze
11:53 AM 19.9 °F 10.1 °F 15.1 °F 81% 30.14 in 7.0 mi West 8.1 mph - N/A   Overcast
12:14 PM 19.4 °F 9.5 °F 14.0 °F 80% 30.08 in 6.0 mi West 8.1 mph - N/A   Haze
12:53 PM 19.9 °F 10.1 °F 15.1 °F 81% 30.13 in 8.0 mi West 8.1 mph - N/A   Overcast
1:53 PM 21.0 °F 9.9 °F 14.0 °F 74% 30.12 in 9.0 mi West 10.4 mph - N/A   Overcast
2:53 PM 21.9 °F 13.4 °F 15.1 °F 75% 30.12 in 8.0 mi West 6.9 mph - N/A   Overcast
3:53 PM 21.9 °F 15.7 °F 14.0 °F 72% 30.14 in 10.0 mi West 4.6 mph - N/A   Overcast
4:53 PM 21.9 °F 15.7 °F 15.1 °F 75% 30.15 in 7.0 mi West 4.6 mph - N/A   Overcast
5:53 PM 19.9 °F 14.9 °F 14.0 °F 78% 30.18 in 4.0 mi WSW 3.5 mph - 0.00 in Snow Light Snow
6:53 PM 19.9 °F 12.1 °F 15.1 °F 81% 30.20 in 7.0 mi West 5.8 mph - 0.00 in   Overcast
7:09 PM 19.4 °F 11.5 °F 14.0 °F 80% 30.16 in 5.0 mi West 5.8 mph - 0.00 in Snow Light Snow
7:17 PM 19.4 °F 11.5 °F 15.8 °F 86% 30.17 in 5.0 mi West 5.8 mph - 0.00 in Snow Light Snow
7:48 PM 19.4 °F 12.8 °F 15.8 °F 86% 30.17 in 3.0 mi West 4.6 mph - 0.00 in Snow Light Snow
7:53 PM 19.0 °F 13.9 °F 15.1 °F 85% 30.22 in 4.0 mi West 3.5 mph - 0.00 in Snow Light Snow
8:53 PM 19.0 °F - 16.0 °F 88% 30.23 in 5.0 mi Calm Calm - 0.00 in   Overcast
9:53 PM 19.0 °F - 16.0 °F 88% 30.25 in 6.0 mi Calm Calm - 0.00 in   Overcast
10:53 PM 19.0 °F 12.3 °F 15.1 °F 85% 30.26 in 7.0 mi WNW 4.6 mph - N/A   Overcast
11:32 PM 19.4 °F - 15.8 °F 86% 30.23 in 8.0 mi Calm Calm - N/A   Overcast
11:53 PM 19.0 °F 12.3 °F 14.0 °F 81% 30.28 in 7.0 mi WNW 4.6 mph - N/A   Overcast